Regional Weather Roundup
Issued by NWS Wakefield, VA

Home | Current Version | Previous Version | Text Only | Print | Product List | Glossary On
Versions: 1 2 3 4 5 6 7 8 9 10 11 12 13 14 15 16 17 18 19 20 21 22 23 24 25 26 27 28 29 30 31 32 33 34 35 36 37 38 39 40 41 42 43 44 45 46 47 48 49 50
000
ASUS41 KAKQ 180510
RWRAKQ

REGIONAL WEATHER ROUNDUP
NATIONAL WEATHER SERVICE WAKEFIELD VA
1200 AM EST THU DEC 18 2014

Note: "fair" indicates few or no clouds below 12,000 feet with no
significant weather and/or obstructions to visibility. * = Denotes
station may not report precipitation (e.g., rain,snow,etc.),
thunder or fog.

VAZ042-051-052>054-056-180600-
NORTHERN VIRGINIA

CITY           SKY/WX    TMP DP  RH WIND       PRES   REMARKS
WASH NATIONAL  PTCLDY    41  22  46 NW14      30.08R
DULLES         PTCLDY    36  24  62 NW8       30.08R
FORT BELVOIR   CLEAR     37  24  59 NW10      30.08R
QUANTICO       CLEAR     39  24  55 N9G22     30.08S
FREDERICKSBRG* PTCLDY    34  28  80 N3        30.07R
STAFFORD*      PTCLDY    36  24  61 NW12      30.10S
WARRENTON      CLEAR     38  29  70 NW12      30.07R
CULPEPER*      CLEAR     37  25  60 N7        30.08R
MANASSAS*      CLEAR     36  27  69 NW7       30.08S
LEESBURG*      CLOUDY    37  27  65 NW13G21   30.09R
WINCHESTER     CLOUDY    36  19  51 NW12G17   30.08R
FRONT ROYAL*   CLOUDY    36  23  60 W5        30.07R
LURAY*         PTCLDY    34  27  75 NW3       30.07R
$$

VAZ048-049-060>072-079>083-180600-
CENTRAL AND SOUTH CENTRAL VIRGINIA

CITY           SKY/WX    TMP DP  RH WIND       PRES   REMARKS
RICHMOND       PTCLDY    39  29  67 N5        30.06R
CHESTERFIELD*  MOCLDY    37  21  52 N5        30.08R
PETERSBURG*    MOCLDY    33  32  96 NW3       30.07R
HANOVER        PTCLDY    37  27  67 CALM      30.08R
TAPPAHANNOCK*  PTCLDY    39  24  55 NW5       30.06S
QUINTON*       PTCLDY    39  28  66 CALM      30.06R
CHARLOTTSVILLE PTCLDY    35  23  61 N3        30.06R
GORDONSVILLE*  PTCLDY    34  23  64 CALM      30.06R
ORANGE*        PTCLDY    32  28  86 CALM      30.08R
LOUISA*        MOCLDY    30  27  86 CALM      30.05S
BUMPASS*       PTCLDY    37  27  67 N3        30.07R
FARMVILLE*     CLOUDY    41  24  50 W3        30.06R
CREWE*         CLOUDY    42  24  49 W6        30.06R
FORT PICKETT*  CLOUDY    39  26  61 NW6       30.06R
CHASE CITY*    CLOUDY    46  30  55 W3        30.07S
CLARKSVILLE*   CLOUDY    41  30  65 CALM      30.07S
SOUTH HILL*    CLOUDY    44  30  57 NW5       30.12R
LAWRENCEVILLE* CLOUDY    42  31  65 CALM      30.05S
EMPORIA*       MOCLDY    36  34  93 CALM      30.07R
$$

VAZ088>098-180600-
SOUTHEAST VIRGINIA

CITY           SKY/WX    TMP DP  RH WIND       PRES   REMARKS
NORFOLK        PTCLDY    46  35  65 N9        30.03R
VIRGINIA BEACH PTCLDY    42  35  76 W6        30.02S
NORFOLK NAVAL  PTCLDY    48  36  63 N13       30.05R
WEST POINT*    MOCLDY    41  28  57 CALM      30.07S
SALUDA*        FAIR      41  29  63 N7        30.04S
NEWPORT NEWS   PTCLDY    45  32  60 N6        30.04R
LANGLEY AFB    PTCLDY    44  33  66 N10       30.04S
FORT EUSTIS    PTCLDY    45  30  56 N5        30.03R
WILLIAMSBURG*  MOCLDY    45  36  70 N5        30.06R
HR EXEC AP*    PTCLDY    34  30  86 NW3       30.05S
FRANKLIN*      PTCLDY    37  36  93 CALM      30.05S
WAKEFIELD      MOCLDY    37  33  85 CALM      30.05R
$$

VAZ020-022-025-037-045-180600-
WEST CENTRAL AND SOUTHWEST VIRGINIA

CITY           SKY/WX    TMP DP  RH WIND       PRES   REMARKS
STAUNTON*      PTCLDY    30  22  72 CALM      30.08R
WAYNESBORO*    PTCLDY    34  23  63 W5        30.05R
HOT SPRINGS VA CLEAR     25  21  85 W24G31    29.92F WCI   9
LYNCHBURG      MOCLDY    39  25  57 CALM      30.08R
DANVILLE       MOCLDY    44  24  45 W3        30.08S
SOUTH BOSTON*  CLOUDY    43  25  49 NW5       30.07F
MARTINSVILLE   PTCLDY    31  31  98 CALM      30.09F
ROANOKE        CLEAR     39  23  52 NW18G32   30.10R
BLACKSBURG     PTCLDY    32  25  73 W14G21    30.11S WCI  22
DUBLIN*        CLEAR     35  28  75 W12G18    30.10S
MARION*        PTCLDY    33  28  81 W20G25    30.11F WCI  22
HILLSVILLE*    PTCLDY    33  28  83 NW17G28   30.05F WCI  22
RICHLANDS*     CLOUDY    30  26  82 W6        30.13S
WISE*          MOCLDY    30  28  93 NW5       30.15S
ABINGDON*      CLEAR     32  30  92 CALM      30.15S
$$

MDZ021>025-VAZ099-100-180600-
SOUTHERN MARYLAND AND THE DELMARVA PENINSULA

CITY           SKY/WX    TMP DP  RH WIND       PRES   REMARKS
PATUXENT RIVER PTCLDY    40  25  55 NW17      30.05S
BAY BRIDGE APT   N/A     37  27  65 W16       30.05S
LEONARDTOWN    PTCLDY    37  25  60 NW3       30.06S
DOVER          CLEAR     37  25  61 W9        29.99R
GEORGETOWN     CLEAR     38  25  59 NW7       30.02S
EASTON         CLEAR     38  29  69 NW7       30.07S
CAMBRIDGE      CLEAR     41  28  60 NW8       30.03S
SALISBURY      PTCLDY    40  27  59 NW5       30.03R
OCEAN CITY     PTCLDY    38  27  64 NW8       30.02R
WALLOPS ISLAND MOCLDY    38  30  73 N7        30.03S
ACCOMACK*      CLOUDY    41  32  70 N7        30.03S
$$

NCZ012>017-030>032-180600-
NORTH CENTRAL AND EASTERN NORTH CAROLINA

CITY           SKY/WX    TMP DP  RH WIND       PRES   REMARKS
ROANOKE RAPIDS CLOUDY    37  34  87 CALM      30.06S
RALEIGH        MOCLDY    39  34  82 CALM      30.08S
ELIZABETH CITY MOCLDY    46  37  71 W7        30.04S
AHOSKIE*       MOCLDY    36  35  94 CALM      30.06S
EDENTON*         N/A     42  39  89 CALM      30.05F
CURRITUCK*     MOCLDY    44  36  72 SW6       30.04S
KILL DEVIL HLS MOCLDY    47  42  85 CALM      30.02F
MANTEO         MOCLDY    46  41  82 W3        30.04S
CAPE HATTERAS  MOCLDY    49  46  90 W5        30.05F
TARBORO*       MOCLDY    35  34  96 CALM      30.08S
GOLDSBORO      MOCLDY    45  44  97 CALM      30.06S
WASHINGTON     CLOUDY    42  40  94 CALM      30.06S
GREENVILLE     MOCLDY    39  39 100 CALM      30.08S
NEW BERN       CLOUDY    47  40  76 SW5       30.07F
WILMINGTON     PTCLDY    41  39  93 CALM      30.08F
$$

VAZ048-180600-
ELSEWHERE

CITY           SKY/WX    TMP DP  RH WIND       PRES   REMARKS
HARRISBURG PA  MOCLDY    37  21  52 NW24      30.02S
BALTIMORE      MOCLDY    38  24  57 W9        30.05R
ANNAPOLIS      CLEAR     39  23  52 W13G20    30.04S
ANDREWS AFB    CLEAR     37  23  55 NW10      30.05S
PHILADELPHIA   PTCLDY    39  22  50 W12       29.99S
HENDERSON NC   MOCLDY    43  26  52 CALM      30.07S
GREENSBORO     PTCLDY    42  29  59 CALM      30.06F
ROCKY MOUNT    MOCLDY    42  36  79 CALM      30.07S
$$

VAZ100-180600-
MARINE

STATION/POSITION TIME  TEMP    WIND        PRES    WAVE   SWELL
                       AIR SEA DIR/SP/G            HT/PER HT/PER
                 (UTC) (F)     (DEG/KT/KT) (MB)    (FT/S) (FT/S)
CAPE MAY NJ      0500   40 44  320/  8/ 18 1015.1F
LEWES DE         0500   40 44  300/ 12/ 14 1015.9S
15NM E FENWICK I 0500   43 47              1015.6F   3/ 4
OCEAN-CITY-INLET 0500   40 45  330/  9/ 12 1016.0S
WACHAPREAGUE VA  0500   42 47  320/  4/  9 1016.7R
THOMAS POINT MD  0500   39 43  300/ 15/ 19 1018.6R
GOOSES REEF MD   0500   40     VRB 14/ 17  1016.5F   1/ 2
COVE POINT MD    0500   40     340/ 12/ 17 1017.4S
SOLOMONS ISLAND  0500      44                N/A
BISHOPS HEAD MD  0500   39 44  320/  6/  7 1016.7S
PINEY POINT MD   0500          350/ 15/ 17   N/A
POTOMAC MD       0500   42 44  350/ 12/ 16 1016.7R   1
CAMBRIDGE MD     0500   41 42  310/ 14/ 16 1016.9F
LEWISETTA VA     0500   42 45  350/ 13/ 20 1017.4R
RAPPAHANNOCK LGT 0500          340/ 17/ 18 1017.2S
STINGRAY PT      0500   43 45  350/ 14/ 17 1017.6R   1/ 2
YORK RVR RNG VA  0500   45      10/ 13/ 15 1016.5R
YORKTOWN VA      0500   45 46  330/  7/  7 1017.0R
JAMESTOWN VA     0500   42 46  360/  4/ 10   N/A     0
DOMINION TERM VA 0500   47     350/  6/  9 1016.9R
KIPTOPEKE VA     0500      51   10/  5/  8   N/A
CHES BAY BRIDGE  0500   47 46  360/ 13/ 14 1016.2R
CAPE HENRY VA    0500   47     340/  9/ 10 1015.3S
CHESAPEAKE LGHT  0400   49     270/ 14/ 15 1016.9S
WILLOUBY STN VA  0500   47      20/  9/ 11 1017.3R
S CRANEY ISL VA  0500          320/  6/  9 1016.7S
CAPE HENRY BUOY  0400      47                N/A     1/10
1ST LANDING BUOY 0500   47 46   10/ 14/ 16 1016.3R   1/ 3
CAPE CHARLES BUO 0500      48                N/A     1/ 8   2/ 8
64NM E OF VA BCH 0500   54 54  270/ 12/ 14 1015.3F   2/ 8   2/ 8
DUCK PIER NC     0500   49 49  260/  7/  9 1016.1F
44100 DUCK FRF   0500      50                N/A     2/ 8
44056 DUCK FRF   0500      49                N/A     1/10
OREGON INLET NC  0500   50 51  240/  6/  7 1016.9F
HATTERAS NC      0500   51 55  260/  7/ 10 1018.0S
DIAMOND SHLS NC  0500   56                 1018.1F   3/ 4
CAPE LOOKOUT NC  0400   55     270/  8/  9 1018.4R
$$


USA.gov is the U.S. government's official web portal to all federal, state and local government web resources and services.